STARLINK-30562, 58033

Orbit data source: Space-Track

STARLINK-30562, 58033 is a payload satellite owned by SpaceX/Seattle (US) in LEO that was launched on Mon, 09 Oct 2023 UTC via an FALCON 9 launch vehicle from the Air Force Western Test Range (AFWTR). Payload-class satellites include a variety of spacecraft equipped with specific instruments for various scientific and technological missions. These include communications satellites like Starlink; space stations such as the ISS; scientific satellites like the Hubble; Earth observation satellites from companies like Planet Labs, Umbra, and HawkEye 360; GPS; miniature CubeSats for education and research; and military/defense satellites.

Loading next visibility...
Identifier
58033, 2023-156F
Orbit
LEO
Country
Flag of USUS
Related business
Manufacturer
SpaceX/Seattle
Mission
Operational Commercial Communications
Bus & Motor
STARLINK V2M, Unknown motor
Mass
730 kg wet, ~700 kg dry
Launch date (UTC)
2023-10-09 (2 years ago)
Launch vehicle
FALCON 9
Launch site
Air Force Western Test Range (AFWTR)
Object type
Payload
Rocket body
Debris
Shape & HBR
Box + 2 Pan, 17.7 m
Radar Cross Section
33.884 m², Large (>1 m²)

Expand to show TLE details & history
Last TLE update: 17 hours ago

TLE from 17 hours ago
0 STARLINK-30562
1 58033U 23156F   25348.89030384 -.00000050  00000-0  10435-4 0  9996
2 58033  53.1590 201.7817 0001265  89.4663 270.6483 15.30196829122054
Epoch: 2025-12-14T21:22Z
TLE epoch observation values (Epoch: 2025-12-14T21:22:02.251Z)
Latitude
-0.00001°
Longitude
157.47558°
Altitude
476.114 km
Speed
7.629 km/s
True Right ascension
13h 27m 07s
True Declination
0° 00' 00"
Sunlit
Object was in daylight at epoch
Visualization orbit readout
Latitude
Unknown
Longitude
Unknown
Altitude
Unknown
Speed
Unknown
Apparent Right ascension
Unknown
Apparent Declination
Unknown
Sunlit
N/A
Visualization observer readout
Local Sidereal Time
13:24:37
Azimuth
Unknown
Elevation
Unknown
Doppler factor
Unknown
Orbital elements
Apogee altitude
476.348 km
Perigee altitude
474.614 km
Semi-major axis
6,853.618 km
Eccentricity
0.00013
Inclination
53.159°
RAAN
201.7817°
Arg. of periapsis
89.4663°
True anomaly
270.63381°
Mean anomaly
270.6483°
Eccentric anomaly
270.64105°
Mean motion
3.82528 °/min
Orbital period
94.11 mins
BSTAR
0.000010435
Loading maneuver chart data...
Computing Atmospheric mass density...
Loading historical data...
Loading historical data...
Loading historical data...
Loading historical data...
Loading historical data...
Loading historical data...
Loading historical data...

Documentation

Showing up to 5 results
|